[[{"header":{"parameterUnit":"m.s-1","parameterCategory":1,"la1":30.2991,"la2":30.254,"lo1":-89.0895,"lo2":-89.0444,"dy":0.0017,"dx":0.0017,"nx":28,"ny":28,"refTime":"2024-05-20T09:00:00:Z","depth":0,"parameterNumber":2,"parameterNumberName":"U-component_of_WINDS"},"data":[0,0,0,0,0,0,0,0,0,0,0,0,0,0,0,0,0,0,0,0,0,0,0,0,0,0,0,0,0,0,0,0,0,0,0,0,0,0,0,0,0,0,0,0,0,0,0,0,0,0,0,0,0,0,0,0,0,0,-1.5908,-1.5909,0,-1.6002,-1.6003,-1.6004,-1.5989,-1.5988,-1.5986,-1.5985,-1.6082,-1.6086,-1.609,0,0,0,0,0,0,0,0,0,0,0,0,0,-1.5717,-1.5721,-1.5908,-1.5909,-1.591,-1.6002,-1.6003,-1.6004,-1.599,-1.5988,-1.5986,-1.5984,-1.6081,-1.6086,-1.6091,0,0,0,0,0,0,0,0,0,0,0,0,0,-1.5804,-1.5722,-1.5908,-1.5914,-1.5915,-1.6002,-1.6003,-1.6005,-1.599,-1.5988,-1.5985,-1.5983,-1.6079,-1.6085,-1.6091,-1.6178,0,0,-1.611,-1.6113,0,0,0,0,0,0,0,0,-1.5799,-1.5811,-1.5912,-1.5913,-1.5915,-1.5981,-1.5972,-1.6063,-1.5991,-1.5962,-1.5985,-1.5982,-1.6051,-1.6059,-1.6082,-1.6183,-1.6187,-1.6111,-1.6115,-1.6117,-1.6119,0,0,0,0,0,0,0,-1.5793,-1.5807,-1.5945,-1.5913,-1.5915,-1.5912,-1.5922,-1.5989,-1.6019,-1.5964,-1.5963,-1.5974,-1.6051,-1.6076,-1.6084,-1.6188,-1.6111,-1.6116,-1.612,-1.6122,-1.6365,-1.6368,0,0,0,0,0,0,-1.5785,-1.5802,-1.5942,-1.5948,-1.585,-1.5918,-1.5929,-1.5963,-1.6018,-1.6024,-1.5976,-1.5973,-1.6067,-1.6077,-1.6088,-1.6193,-1.6117,-1.6123,-1.6126,-1.6362,-1.6366,-1.6368,0,0,0,0,0,0,-1.5781,-1.5798,-1.5938,-1.5875,-1.5893,-1.5924,-1.5962,-1.5966,-1.5991,-1.6027,-1.6033,-1.5996,-1.6065,-1.6079,-1.6156,-1.6196,-1.6126,-1.6131,-1.6359,-1.6363,-1.6367,-1.6403,0,0,0,0,0,0,-1.5776,-1.5797,-1.5829,-1.5876,-1.5896,-1.6004,-1.5964,-1.5969,-1.6001,-1.5998,-1.6047,-1.6053,-1.6065,-1.6147,-1.6162,-1.6203,-1.6136,-1.6355,-1.6361,-1.6366,-1.6398,-1.6408,-1.6416,0,0,0,0,0,-1.5769,-1.5836,-1.5831,-1.5848,-1.5937,-1.6006,-1.6018,-1.6029,-1.6004,-1.6038,-1.6062,-1.6052,-1.6189,-1.6155,-1.6172,-1.6215,-1.6353,-1.6359,-1.6365,-1.6394,-1.6406,-1.6416,0,0,0,0,0,0,-1.5793,-1.5842,-1.5837,-1.5921,-1.5959,-1.6004,-1.6046,-1.6041,-1.6088,-1.6083,-1.6096,-1.6107,-1.6185,-1.6208,-1.6168,-1.6302,-1.6268,-1.6278,-1.6284,-1.6295,-1.6304,-1.6296,-1.6141,0,0,0,0,0,-1.5808,-1.586,-1.59,-1.597,-1.5989,-1.6014,-1.6045,-1.605,-1.6091,-1.6108,-1.6137,-1.6177,-1.623,-1.6264,-1.6314,-1.6402,-1.6413,-1.6441,-1.6449,-1.6457,-1.6465,-1.6513,-1.6526,-1.6389,-1.6389,-1.6389,0,0,-1.5839,-1.5873,-1.5904,-1.5975,-1.6006,-1.6059,-1.6028,-1.6086,-1.6126,-1.6117,-1.619,-1.6214,-1.626,-1.6342,-1.638,-1.6364,-1.6505,-1.6464,-1.647,-1.6474,-1.6521,-1.6534,-1.6545,-1.6393,-1.6392,-1.6392,0,0,-1.5924,-1.5954,-1.6016,-1.6047,-1.6094,-1.6111,-1.6126,-1.6171,-1.6186,-1.626,-1.6255,-1.6303,-1.6393,-1.6426,-1.6455,-1.6553,-1.6546,-1.657,-1.6615,-1.6662,-1.6673,-1.6683,-1.6717,-1.673,-1.6578,-1.6578,-1.6578,0,-1.5957,-1.6037,-1.6048,-1.6107,-1.6138,-1.6132,-1.6195,-1.6226,-1.6287,-1.6309,-1.629,-1.6403,-1.6434,-1.6524,-1.6548,-1.6572,-1.659,-1.6563,-1.667,-1.668,-1.6689,-1.6723,-1.6736,-1.658,-1.658,-1.658,-1.658,0,-1.6075,-1.6131,-1.6175,-1.6234,-1.6271,-1.6331,-1.6352,-1.6388,-1.6391,-1.641,-1.6486,-1.6523,-1.6581,-1.6603,-1.6607,-1.6695,-1.6683,-1.6667,-1.6633,-1.6705,-1.6736,-1.6749,-1.6584,-1.6583,-1.6582,-1.6582,0,0,-1.6175,-1.6241,-1.6257,-1.6283,-1.6336,-1.6379,-1.644,-1.6496,-1.6527,-1.657,-1.6621,-1.6698,-1.6684,-1.6717,-1.6725,-1.6766,-1.6842,-1.6745,-1.6747,-1.6761,-1.6941,-1.6951,-1.6966,-1.6838,-1.684,-1.6842,-1.6936,0,-1.6264,-1.637,-1.6383,-1.6478,-1.653,-1.6526,-1.6579,-1.6617,-1.6637,-1.6684,-1.6707,-1.6761,-1.6738,-1.6758,-1.6799,-1.6824,-1.6878,-1.6817,-1.6886,-1.6888,-1.6873,-1.6982,-1.6994,-1.7081,-1.6949,-1.6951,-1.6953,0,-1.6381,-1.6427,-1.6527,-1.6573,-1.6595,-1.6643,-1.6695,-1.6741,-1.6785,-1.6796,-1.6833,-1.6836,-1.6899,-1.6863,-1.6951,-1.691,-1.6939,-1.6956,-1.6959,-1.6965,-1.6923,-1.699,-1.7109,-1.7121,-1.6972,-1.6971,-1.6969,0,-1.6443,-1.6531,-1.6602,-1.6625,-1.6681,-1.6714,-1.6739,-1.678,-1.6813,-1.686,-1.6882,-1.6936,-1.6965,-1.7007,-1.7024,-1.6997,-1.7111,-1.7077,-1.7123,-1.7122,-1.7146,-1.7144,-1.7269,-1.7167,-1.7166,-1.7166,-1.7166,0,-1.654,-1.6601,-1.6631,-1.6674,-1.6743,-1.6758,-1.6826,-1.685,-1.6887,-1.6935,-1.6936,-1.6982,-1.7002,-1.7052,-1.7066,-1.7136,-1.715,-1.7161,-1.7164,-1.716,-1.7159,-1.7179,-1.7172,-1.717,-1.7169,-1.7168,-1.7168,0,-1.662,-1.6642,-1.672,-1.6766,-1.678,-1.6828,-1.6868,-1.6911,-1.6931,-1.6992,-1.7008,-1.7039,-1.7097,-1.7119,-1.719,-1.72,-1.7281,-1.728,-1.7266,-1.7266,-1.7311,-1.7306,-1.7452,-1.7472,-1.7357,-1.7358,-1.7359,0,-1.668,-1.6727,-1.6779,-1.6811,-1.6837,-1.689,-1.6924,-1.6941,-1.6976,-1.7031,-1.7067,-1.7125,-1.7172,-1.7265,-1.7294,-1.7349,-1.7348,-1.7396,-1.7356,-1.7351,-1.7348,-1.7344,-1.7349,-1.7403,-1.7404,-1.7405,-1.7406,0,-1.6783,-1.6792,-1.6841,-1.6894,-1.6935,-1.6978,-1.7019,-1.7046,-1.707,-1.711,-1.7169,-1.7206,-1.7279,-1.7336,-1.7392,-1.7419,-1.7416,-1.7418,-1.7431,-1.7427,-1.7417,-1.7422,-1.7285,-1.7414,-1.7413,-1.7413,-1.7412,-1.7412,-1.6854,-1.6896,-1.6939,-1.6994,-1.7027,-1.7066,-1.7109,-1.7134,-1.7184,-1.7244,-1.7252,-1.7315,-1.7359,-1.7434,-1.7463,-1.7514,-1.7501,-1.752,-1.7525,-1.7529,-1.7532,-1.7411,-1.7524,-1.7524,-1.7524,-1.7524,-1.7524,0,-1.6957,-1.6985,-1.7035,-1.7093,-1.7137,-1.7131,-1.7177,-1.7214,-1.727,-1.7311,-1.7357,-1.7426,-1.7482,-1.7517,-1.7573,-1.7607,-1.7607,-1.7621,-1.7618,-1.7624,-1.7541,-1.7523,-1.762,-1.762,-1.762,-1.762,-1.762,-1.762,-1.7015,-1.7085,-1.71,-1.7187,-1.7215,-1.7277,-1.7303,-1.734,-1.7373,-1.7449,-1.7496,-1.7518,-1.7556,-1.7616,-1.7668,-1.7676,-1.7697,-1.7712,-1.7719,-1.764,-1.763,-1.762,-1.7604,-1.7716,-1.7716,-1.7798,-1.7799,-1.7799]},{"header":{"parameterUnit":"m.s-1","parameterCategory":1,"la1":30.2991,"la2":30.254,"lo1":-89.0895,"lo2":-89.0444,"dy":0.0017,"dx":0.0017,"nx":28,"ny":28,"refTime":"2024-05-20T09:00:00:Z","depth":0,"parameterNumber":3,"parameterNumberName":"V-component_of_WINDS"},"data":[0,0,0,0,0,0,0,0,0,0,0,0,0,0,0,0,0,0,0,0,0,0,0,0,0,0,0,0,0,0,0,0,0,0,0,0,0,0,0,0,0,0,0,0,0,0,0,0,0,0,0,0,0,0,0,0,0,0,-1.8336,-1.8337,0,-1.8372,-1.8373,-1.8373,-1.8349,-1.8348,-1.8346,-1.8345,-1.8381,-1.8383,-1.8385,0,0,0,0,0,0,0,0,0,0,0,0,0,-1.8244,-1.8246,-1.8336,-1.8337,-1.8337,-1.8372,-1.8373,-1.8373,-1.8349,-1.8348,-1.8346,-1.8345,-1.838,-1.8382,-1.8385,0,0,0,0,0,0,0,0,0,0,0,0,0,-1.8282,-1.8246,-1.8336,-1.8329,-1.8329,-1.8372,-1.8373,-1.8373,-1.8349,-1.8348,-1.8346,-1.8344,-1.8379,-1.8382,-1.8385,-1.8436,0,0,-1.8394,-1.8395,0,0,0,0,0,0,0,0,-1.828,-1.8286,-1.833,-1.833,-1.833,-1.8354,-1.8353,-1.8394,-1.835,-1.8341,-1.8345,-1.8343,-1.8373,-1.8376,-1.8387,-1.8438,-1.844,-1.8394,-1.8396,-1.8397,-1.8398,0,0,0,0,0,0,0,-1.8278,-1.8284,-1.835,-1.833,-1.833,-1.8324,-1.8327,-1.8361,-1.8366,-1.8342,-1.834,-1.8345,-1.8373,-1.8384,-1.8387,-1.844,-1.8394,-1.8397,-1.8399,-1.84,-1.8535,-1.8537,0,0,0,0,0,0,-1.8276,-1.8282,-1.8349,-1.8351,-1.83,-1.8327,-1.8331,-1.8348,-1.8366,-1.8367,-1.8346,-1.8344,-1.838,-1.8384,-1.8389,-1.845,-1.8397,-1.84,-1.8402,-1.8533,-1.8535,-1.8537,0,0,0,0,0,0,-1.8274,-1.8282,-1.8348,-1.8316,-1.8324,-1.833,-1.835,-1.835,-1.8361,-1.8369,-1.837,-1.8357,-1.8379,-1.8384,-1.8425,-1.8451,-1.8401,-1.8404,-1.8531,-1.8534,-1.8536,-1.8573,0,0,0,0,0,0,-1.8271,-1.8282,-1.8302,-1.8317,-1.8326,-1.8384,-1.8351,-1.8351,-1.8366,-1.8363,-1.8379,-1.838,-1.8378,-1.8421,-1.8428,-1.8454,-1.8406,-1.8529,-1.8532,-1.8535,-1.857,-1.8577,-1.8583,0,0,0,0,0,-1.8268,-1.831,-1.8303,-1.8311,-1.8351,-1.8386,-1.8391,-1.8387,-1.8368,-1.8388,-1.8394,-1.838,-1.8447,-1.8425,-1.8433,-1.846,-1.8527,-1.8531,-1.8535,-1.8567,-1.8575,-1.8583,0,0,0,0,0,0,-1.8297,-1.8312,-1.8304,-1.8352,-1.8368,-1.8381,-1.8406,-1.8397,-1.8418,-1.8414,-1.8408,-1.8412,-1.8454,-1.8461,-1.8437,-1.8511,-1.8484,-1.849,-1.8505,-1.8513,-1.852,-1.8517,-1.8409,0,0,0,0,0,-1.8309,-1.8336,-1.8348,-1.8389,-1.8397,-1.8401,-1.8415,-1.8412,-1.8427,-1.8434,-1.8442,-1.8457,-1.8481,-1.8498,-1.8521,-1.857,-1.8573,-1.8593,-1.86,-1.8605,-1.861,-1.8637,-1.8646,-1.8551,-1.8551,-1.8551,0,0,-1.8334,-1.8346,-1.8363,-1.8395,-1.8407,-1.8435,-1.8406,-1.8437,-1.8457,-1.8438,-1.8477,-1.8483,-1.85,-1.8545,-1.8566,-1.8552,-1.8637,-1.861,-1.8615,-1.8617,-1.8642,-1.8651,-1.8659,-1.8554,-1.8553,-1.8553,0,0,-1.8394,-1.8405,-1.8441,-1.8454,-1.8472,-1.8474,-1.8483,-1.8498,-1.8501,-1.854,-1.8527,-1.855,-1.8592,-1.8605,-1.8617,-1.8681,-1.8669,-1.8689,-1.8723,-1.875,-1.8757,-1.8764,-1.8787,-1.8795,-1.8694,-1.8694,-1.8694,0,-1.8422,-1.8464,-1.8461,-1.8493,-1.8507,-1.8492,-1.8528,-1.8539,-1.8564,-1.8574,-1.8559,-1.8612,-1.8622,-1.867,-1.8685,-1.8695,-1.8705,-1.8687,-1.8756,-1.8763,-1.8769,-1.8791,-1.88,-1.8696,-1.8696,-1.8696,-1.8695,0,-1.8499,-1.8528,-1.8555,-1.858,-1.8597,-1.8631,-1.8631,-1.8649,-1.8644,-1.8647,-1.8687,-1.8698,-1.8723,-1.8734,-1.8729,-1.8782,-1.8773,-1.8757,-1.873,-1.878,-1.8801,-1.8809,-1.8699,-1.8699,-1.8698,-1.8697,0,0,-1.8578,-1.8601,-1.861,-1.8622,-1.8641,-1.8663,-1.8695,-1.8721,-1.8736,-1.8753,-1.878,-1.8816,-1.8802,-1.8815,-1.8811,-1.8834,-1.8885,-1.8816,-1.8816,-1.8828,-1.8943,-1.8955,-1.8965,-1.8877,-1.8878,-1.8879,-1.8941,0,-1.8639,-1.8697,-1.8695,-1.8748,-1.8775,-1.8761,-1.8789,-1.8804,-1.8808,-1.883,-1.8834,-1.886,-1.8839,-1.8847,-1.8869,-1.8874,-1.8908,-1.8869,-1.8901,-1.8903,-1.8898,-1.8975,-1.8988,-1.9046,-1.8949,-1.8951,-1.8952,0,-1.8718,-1.8739,-1.8796,-1.8811,-1.8822,-1.8848,-1.887,-1.8893,-1.8908,-1.8909,-1.8925,-1.8917,-1.8949,-1.8921,-1.8965,-1.894,-1.8952,-1.8957,-1.8959,-1.8962,-1.893,-1.898,-1.9064,-1.9073,-1.8964,-1.8963,-1.8962,0,-1.877,-1.8812,-1.8852,-1.8862,-1.888,-1.8899,-1.8907,-1.8921,-1.8937,-1.8956,-1.8966,-1.8989,-1.9001,-1.9019,-1.9017,-1.8997,-1.9062,-1.9034,-1.9064,-1.9064,-1.9078,-1.9077,-1.9166,-1.9086,-1.9086,-1.9086,-1.9086,0,-1.8838,-1.8874,-1.8876,-1.89,-1.8939,-1.8935,-1.8974,-1.898,-1.8993,-1.9018,-1.9006,-1.903,-1.9026,-1.9049,-1.9048,-1.9085,-1.909,-1.9092,-1.9091,-1.9093,-1.9093,-1.9102,-1.9098,-1.9088,-1.9088,-1.9087,-1.9087,0,-1.8903,-1.8906,-1.8948,-1.8963,-1.8967,-1.8995,-1.9007,-1.903,-1.9033,-1.9064,-1.9071,-1.9076,-1.9102,-1.9102,-1.9133,-1.9132,-1.9177,-1.9171,-1.9172,-1.9171,-1.9201,-1.9198,-1.9298,-1.9311,-1.9223,-1.9224,-1.9224,0,-1.8947,-1.8974,-1.8992,-1.9008,-1.9018,-1.9044,-1.906,-1.9057,-1.9074,-1.9094,-1.9114,-1.914,-1.916,-1.9203,-1.9209,-1.9232,-1.9227,-1.926,-1.923,-1.9231,-1.9227,-1.9226,-1.9229,-1.9266,-1.9267,-1.9268,-1.9269,0,-1.9024,-1.9024,-1.9048,-1.9072,-1.9091,-1.911,-1.9127,-1.9141,-1.914,-1.9159,-1.9187,-1.9203,-1.9234,-1.926,-1.9282,-1.929,-1.9279,-1.9278,-1.9286,-1.9289,-1.9288,-1.9289,-1.9188,-1.9276,-1.9275,-1.9274,-1.9274,-1.9274,-1.908,-1.9104,-1.912,-1.9146,-1.9159,-1.9175,-1.9198,-1.9204,-1.9227,-1.9253,-1.9249,-1.928,-1.9295,-1.9324,-1.9333,-1.9357,-1.9345,-1.9357,-1.936,-1.9363,-1.9366,-1.9284,-1.9361,-1.936,-1.936,-1.936,-1.936,0,-1.9157,-1.9167,-1.9191,-1.9216,-1.9237,-1.9226,-1.9244,-1.9262,-1.929,-1.9304,-1.9325,-1.9357,-1.9381,-1.9389,-1.9413,-1.943,-1.9426,-1.9436,-1.9435,-1.9437,-1.9375,-1.9366,-1.9439,-1.9439,-1.9439,-1.9439,-1.9439,-1.9439,-1.9199,-1.9239,-1.9241,-1.9286,-1.9295,-1.9326,-1.9337,-1.9352,-1.9364,-1.94,-1.9421,-1.9426,-1.9438,-1.9462,-1.9484,-1.9485,-1.9495,-1.9508,-1.9507,-1.9449,-1.9441,-1.9434,-1.9425,-1.951,-1.951,-1.9567,-1.9567,-1.9568]}]]